Regional Weather Roundup
Issued by NWS

Home | Current Version | Previous Version | Text Only | Print | Product List | Glossary Off
Versions: 1 2 3 4 5 6 7 8 9 10 11 12 13 14 15 16 17 18 19 20 21 22 23 24 25 26 27 28 29 30 31 32 33 34 35 36 37 38 39 40 41 42 43 44 45 46 47 48 49 50

000
ASUS43 KIND 021409
RWRIN

WEATHER ROUNDUP FOR INDIANA
NATIONAL WEATHER SERVICE INDIANAPOLIS IN
1000 AM EDT MON MAY 02 2016

NOTE: "FAIR" INDICATES FEW OR NO CLOUDS BELOW 12,000 FEET WITH NO
SIGNIFICANT WEATHER AND/OR OBSTRUCTIONS TO VISIBILITY.

* - STATION DOES NOT REPORT WEATHER SUCH AS PRECIPITATION OR FOG.

+ - STATION NOT QUALITY CONTROLLED BY THE NATIONAL WEATHER SERVICE.
    USE DATA WITH CAUTION...ESPECIALLY DEWPOINT AND RELATIVE
    HUMIDITY OBSERVATIONS.

INZ001>003-010>013-019-020-021500-
NORTHWEST INDIANA

CITY           SKY/WX    TMP DP  RH WIND       PRES   REMARKS
GARY /AIRPORT/ MOSUNNY   48  46  93 NE14      30.06R
KNOX *+        CLOUDY    46  41  81 NE7       30.02S
LA PORTE +     CLOUDY    47  47 100 NE6       30.04S
MICHIGAN CITY+ CLOUDY    46  46 100 NE3       30.04S
MONTICELLO +   CLOUDY    47  44  88 N8        30.00S
RENSSELAER +   CLOUDY    45  45 100 N9        30.02F FOG
VALPARAISO     CLOUDY    47  44  90 NE5       30.03F

$$

LMZ046-743>745-021500-
SOUTHERN LAKE MICHIGAN

STATION/POSITION TIME  TEMP    WIND        PRES    WAVE
                       AIR SEA DIR/SP/G            HT
                 (UTC) (F)     (DEG/KT/KT) (MB)    (FT)
BURNS HARBOR     1323   46      50/ 14/ 18 1017.6F
MICHIGAN CITY    1300   45      20/ 17/ 18   N/A

$$

INZ004-005-014>016-021>024-021500-
NORTH CENTRAL INDIANA

CITY           SKY/WX    TMP DP  RH WIND       PRES   REMARKS
ELKHART        CLOUDY    46  46 100 NE5       30.03S
GOSHEN         CLOUDY    46  44  93 NE9       30.02S
LOGANSPORT +   DRIZZLE   46  46 100 NE9       30.00F
PERU/GRISSOM   DRZL/FOG  49  49 100 N9        29.97F VSB 1
ROCHESTER +    CLOUDY    48  48 100 N7        30.01F FOG
SOUTH BEND     CLOUDY    46  43  89 NE9       30.03S
WARSAW +       CLOUDY    45  45 100 NE7       30.01S FOG

$$

INZ006>009-017-018-025>027-021500-
NORTHEAST INDIANA

CITY           SKY/WX    TMP DP  RH WIND       PRES   REMARKS
ANGOLA *+      CLOUDY    45  36  70 NE6       30.01S
AUBURN +       CLOUDY    46  45  93 N6        30.02R FOG
FORT WAYNE     DRIZZLE   49  45  86 NE8       30.02R
HUNTINGTON +   CLOUDY   N/A N/A N/A NE8       29.99F

$$

INZ028-029-035-036-043>045-051>053-021500-
WEST CENTRAL INDIANA

CITY           SKY/WX    TMP DP  RH WIND       PRES   REMARKS
CRAWFORDSVL +  CLOUDY    48  48 100 N7        29.98R FOG
GREENCASTLE +  CLOUDY    50  50 100 CALM      30.01R
LAFAYETTE      CLOUDY    49  47  93 N10       29.98F FOG
TERRE HAUTE    CLOUDY    51  46  83 CALM      30.00S

$$

INZ030>032-037>040-046>048-054>057-064-065-021500-
CENTRAL INDIANA

CITY           SKY/WX    TMP DP  RH WIND       PRES   REMARKS
ANDERSON       CLOUDY    54  54 100 CALM      30.00R
CP ATTERBURY + CLOUDY    54  50  87 W6        30.01R
COLUMBUS       CLOUDY    55  54  94 W6        30.01R
FISHERS *+     CLOUDY    52  52 100 CALM      29.98
FRANKFORT +      N/A     51  51 100 N10       29.99F FOG
GREENWOOD *+   CLOUDY    54  50  87 W5        30.01R
INDIANAPOLIS   CLOUDY    52  49  89 SW6       29.98R FOG
-EAGLE CREEK   CLOUDY    52  50  93 NW3       29.98S
KOKOMO *+      CLOUDY    52  48  87 NE8       29.97F
MARION +       CLOUDY    51  50  94 NE12      29.98F FOG
SHELBYVILLE    CLOUDY    56  50  80 W5        29.98S
ZIONSVILLE +   FOG       51  50  99 NW5       29.98F VSB 3/4

$$

INZ033-034-041-042-049-050-058-059-021500-
EAST CENTRAL INDIANA

CITY           SKY/WX    TMP DP  RH WIND       PRES   REMARKS
MUNCIE         CLOUDY    53  50  89 E6        29.99R

$$

INZ060-061-067>069-081>083-085>088-021500-
SOUTHWEST INDIANA

CITY           SKY/WX    TMP DP  RH WIND       PRES   REMARKS
EVANSVILLE     PTSUNNY   58  51  78 N3        30.00F
HUNTINGBURG *+ CLOUDY    57  50  77 NE6       30.00F
WASHINGTON +   CLOUDY    56  49  79 NW3       30.00F

$$

INZ062-063-066-070>080-084-089>092-021500-
SOUTH CENTRAL AND SOUTHEAST INDIANA

CITY           SKY/WX    TMP DP  RH WIND       PRES   REMARKS
BLOOMINGTON    CLOUDY    53  47  79 VRB3      30.01R
MADISON *+     PTSUNNY   59  50  72 W7        30.02S
NORTH VERNON + CLOUDY   N/A N/A N/A CALM      30.00S

$$





USA.gov is the U.S. government's official web portal to all federal, state and local government web resources and services.